Location: College Rock
(37.2713°N, 119.1740°W)
Time: 03:52:59
(UTC+00:00)

Meteor 1-24 Rocket - Pass Details

Date: 29 October 2020
Orbit: 791 x 926 km, 81.3° (Epoch: 23 November)

Event Time Altitude Azimuth Distance (km) Brightness Sun altitude
Rises 12:06:44 0° 178° (S) 3,363 6.8 -26.8°
Reaches altitude 10° 12:09:06 10° 175° (S) 2,452 6.1 -26.3°
Maximum altitude 12:14:36 64° 95° (E) 958 4.1 -25.2°
Drops below altitude 10° 12:20:20 10° 15° (NNE) 2,560 6.4 -24.1°
Sets 12:22:52 0° 13° (NNE) 3,522 7.1 -23.6°
